GFSMA_850_spd_120.txt.gz
Wind_Speed
31 28 28 27 24 20 18 17 12 9 12 10 8 9 10 5 6 4 1 1 1 0 1 2 2 3 5 5 5 5 5 6 6 6 6 7 6 7 8 9 11 13 13
32 30 26 27 23 15 13 14 12 11 11 9 8 7 7 9 7 5 5 4 4 3 3 2 1 1 2 3 4 4 4 4 5 5 6 5 5 5 5 6 7 8 10
32 30 30 25 23 18 16 17 15 12 11 10 8 6 5 2 5 6 7 8 5 6 5 5 4 3 3 3 1 3 4 4 4 4 4 5 5 5 5 5 4 6 8
28 25 28 22 20 22 17 17 16 13 11 11 8 7 8 10 9 4 5 9 8 8 5 6 6 6 6 6 5 5 3 6 6 6 7 7 9 8 7 7 6 6 6
25 24 28 26 25 24 21 19 16 15 13 10 10 9 7 7 6 8 7 6 9 10 9 6 8 9 9 10 9 7 8 8 8 9 10 10 10 10 9 8 8 7 6
32 31 30 30 26 24 21 18 16 13 9 8 7 7 7 5 5 6 7 6 7 11 9 12 11 10 10 12 12 12 11 11 11 10 9 11 11 11 10 9 10 10 10
36 34 30 29 26 24 21 17 15 15 14 12 9 4 2 3 4 6 8 9 10 12 12 11 12 12 12 12 13 15 16 15 16 13 11 11 11 10 11 13 12 12 12
36 35 31 29 26 22 19 17 15 14 12 10 4 3 3 6 6 7 7 6 8 11 11 12 12 15 16 17 15 13 13 19 20 19 14 8 8 11 10 10 13 15 15
36 34 30 27 24 21 20 17 16 14 11 9 9 5 4 2 1 6 6 9 8 9 11 12 14 16 15 15 14 15 16 15 15 16 11 10 7 9 9 10 10 10 14
34 32 28 27 25 23 19 18 16 14 13 11 9 9 8 6 5 4 8 11 11 8 6 9 10 10 10 12 12 10 8 7 7 9 12 13 13 12 10 11 11 11 11
32 33 30 28 26 24 20 18 18 16 13 11 9 8 6 11 10 10 12 13 12 10 8 9 8 9 9 9 10 10 9 12 14 14 14 11 11 12 14 11 10 10 10
33 33 32 26 24 23 21 18 16 15 12 10 8 10 12 10 10 11 11 11 8 10 8 9 13 12 12 13 13 14 16 18 18 15 12 12 11 12 12 12 12 11 12
36 34 30 29 25 22 19 16 14 14 12 13 12 15 14 13 12 11 10 9 10 13 14 11 11 10 11 14 16 16 17 18 18 17 14 11 13 13 14 14 14 16 17
36 34 32 27 23 21 19 18 17 13 14 16 17 15 12 15 14 16 15 11 13 13 12 12 13 15 13 11 12 13 15 16 17 16 12 11 13 16 17 18 16 18 20
31 31 27 25 23 21 21 16 14 15 13 21 20 17 18 18 17 16 15 14 14 12 13 7 8 14 16 16 19 18 17 16 15 14 11 13 16 19 19 18 17 15 22
29 28 28 23 25 22 18 15 8 11 21 23 18 16 16 15 15 17 16 15 14 13 17 14 14 17 21 23 20 16 15 13 13 14 15 18 19 20 21 17 17 15 17
27 30 29 24 24 19 13 11 12 17 22 21 19 17 17 16 16 15 15 14 15 14 15 18 19 19 19 20 19 18 16 15 14 15 15 19 21 22 21 18 15 17 12
28 31 31 27 23 20 18 15 21 30 28 25 20 19 18 16 15 16 15 15 14 14 16 17 18 18 20 19 18 17 14 15 16 17 16 16 18 19 17 18 14 14 9
32 38 36 35 32 32 34 27 26 29 28 24 22 20 18 16 16 16 15 14 15 16 17 17 19 21 20 18 18 18 18 17 17 18 18 19 17 18 16 14 13 11 10
26 31 31 35 39 35 29 28 29 29 27 26 21 19 19 18 17 16 15 16 16 17 19 20 21 21 22 20 18 17 18 16 16 17 16 18 17 17 14 13 10 11 9
24 22 21 23 28 29 31 30 29 27 26 23 20 19 18 17 16 15 16 17 18 20 21 20 19 19 19 19 17 16 17 16 16 17 16 17 17 16 15 13 12 11 10
25 25 25 24 26 29 28 27 26 25 23 21 21 19 17 17 16 16 18 19 21 21 22 21 20 19 17 17 14 13 15 16 14 12 14 14 15 16 15 15 14 13 12
23 24 26 26 25 25 25 24 24 24 23 22 19 18 17 17 17 20 21 22 22 20 21 20 19 17 16 15 14 14 15 16 14 17 14 13 14 15 16 17 16 14 14
21 23 24 23 22 22 22 23 22 22 20 19 17 16 16 17 18 19 20 20 20 19 19 18 17 16 15 13 12 11 14 17 17 17 16 17 18 17 17 17 16 15 15
19 21 22 23 22 21 22 23 23 22 20 18 16 15 15 16 17 18 18 18 18 18 17 15 13 13 14 14 13 11 10 12 14 16 17 18 18 17 16 16 16 15 16
16 18 20 20 20 21 21 22 22 21 19 16 15 14 14 13 11 11 12 15 16 16 16 14 13 12 12 12 14 12 12 12 13 13 14 16 18 16 11 14 16 18 18

GFSMA_850_spd_123.txt.gz
Wind_Speed
33 32 31 30 28 26 23 22 18 17 14 13 10 9 7 4 2 0 1 1 1 2 2 2 2 4 5 5 5 5 5 6 6 6 7 7 7 8 9 11 12 12 12
35 34 33 30 28 25 23 20 17 17 17 13 12 11 10 7 5 4 2 2 2 2 2 2 2 2 2 3 3 4 5 5 5 6 6 6 7 7 7 7 7 8 9
37 34 34 30 28 24 22 20 17 15 17 14 11 8 9 9 8 6 4 3 3 4 4 4 4 4 4 3 2 3 3 5 6 6 6 6 5 5 6 6 6 7 7
37 33 33 31 27 24 21 21 19 18 16 14 11 8 6 6 6 4 2 4 6 5 5 5 5 6 6 6 6 6 5 7 6 6 5 6 7 7 7 7 6 5 5
37 35 34 32 26 23 24 23 21 18 17 14 13 9 10 9 8 8 5 6 6 7 7 8 7 7 8 9 9 9 8 9 9 10 9 8 8 9 8 9 8 7 6
37 35 31 36 29 30 27 25 21 19 15 12 12 10 9 6 6 6 8 9 9 9 9 9 11 10 10 11 11 13 12 13 12 13 12 10 8 10 12 11 9 10 8
38 36 34 34 34 33 28 25 22 21 18 14 11 9 5 5 3 5 5 7 8 9 11 10 11 12 11 11 11 13 14 15 17 17 16 13 8 8 8 9 13 13 12
37 36 38 39 39 32 29 26 24 23 19 15 12 10 8 8 8 6 4 5 5 8 11 12 12 13 13 14 16 14 12 12 13 16 13 11 11 12 10 10 10 11 16
42 40 41 41 38 33 31 27 24 22 22 19 15 8 8 6 10 8 6 4 5 6 9 11 11 14 15 15 12 11 12 11 10 9 7 6 10 10 11 11 11 11 9
43 45 41 39 35 33 30 27 24 22 21 20 17 15 9 9 5 5 7 6 8 7 7 6 8 8 8 9 10 9 9 8 7 7 10 10 11 11 11 10 12 11 10
45 42 41 38 35 33 30 27 25 24 21 18 17 15 14 10 9 10 6 7 6 6 5 6 8 8 9 8 8 9 10 11 13 14 13 12 12 12 12 11 11 12 11
40 41 40 38 36 33 31 28 25 23 20 18 16 15 14 10 10 9 6 9 6 4 4 3 6 8 9 10 12 13 15 16 17 18 17 14 13 13 13 13 13 13 15
42 43 39 37 36 34 30 27 24 23 21 19 15 11 13 13 10 7 8 9 6 6 7 9 8 8 7 8 11 12 14 15 16 16 16 14 14 16 15 13 13 16 14
43 43 42 40 35 33 29 26 24 23 23 20 14 10 9 11 10 10 12 10 8 7 8 8 8 8 8 8 11 12 14 16 16 18 12 12 16 13 11 15 20 19 17
43 43 43 40 35 32 30 27 26 24 20 17 13 9 10 11 11 11 12 11 10 8 6 7 6 9 12 14 16 17 16 13 11 11 11 10 14 16 14 17 19 16 18
43 44 42 38 34 32 31 29 28 23 17 15 9 9 11 14 12 12 14 14 13 11 10 10 12 13 18 20 19 18 16 14 12 11 11 14 16 18 18 20 20 18 16
41 42 40 38 36 34 33 31 27 24 19 15 17 17 15 14 14 15 15 14 12 11 12 12 15 17 19 19 19 17 16 14 11 9 13 16 19 20 21 21 19 15 14
36 39 38 38 37 35 35 28 27 22 14 18 17 27 21 18 17 16 15 13 12 11 12 13 15 17 20 20 19 18 18 16 15 11 13 16 19 18 17 16 15 13 11
30 36 39 37 36 37 33 27 18 14 18 22 25 25 22 19 19 17 14 12 12 14 14 15 18 18 19 19 18 18 19 20 18 17 13 17 17 18 18 16 15 13 8
27 30 36 37 37 37 34 28 23 18 23 28 36 32 29 21 19 16 14 15 15 15 16 16 18 18 18 17 18 19 18 18 16 16 16 17 17 17 16 16 14 10 8
20 28 28 28 34 38 37 33 29 30 35 30 27 25 22 20 17 15 15 16 16 17 17 18 18 17 16 16 17 17 17 15 13 15 17 17 18 20 19 16 13 11 10
18 20 17 15 17 25 24 28 37 31 29 27 23 22 21 18 18 17 17 17 18 18 19 20 19 20 19 18 17 14 14 12 14 12 13 14 17 18 16 15 13 12 11
11 14 14 16 20 23 25 23 25 26 23 23 22 21 21 20 18 18 18 19 19 19 20 20 20 19 19 18 16 13 11 13 15 14 15 16 16 16 16 16 15 15 14
15 18 19 17 13 17 18 18 18 21 21 22 20 20 20 19 19 18 18 19 19 20 20 20 20 19 18 17 15 13 12 12 13 16 16 17 17 17 16 17 16 16 15
9 11 13 16 22 19 17 19 21 22 22 21 21 21 19 17 17 17 16 17 18 19 20 20 19 18 16 14 13 13 13 14 13 14 14 14 18 18 16 15 14 15 16
6 10 13 14 15 15 18 18 21 21 22 22 21 19 18 17 16 15 13 13 13 15 17 18 17 16 15 14 13 13 13 13 13 15 14 12 15 15 12 15 14 14 16

GFSMA_850_spd_126.txt.gz
Wind_Speed
32 34 31 30 29 28 26 25 24 22 18 16 12 8 5 5 3 3 2 2 1 1 2 2 2 3 3 4 4 5 5 6 6 6 7 7 8 7 8 8 10 10 10
34 35 33 32 31 30 28 25 23 21 18 16 13 9 7 4 3 2 2 1 1 1 2 2 2 2 2 2 3 4 5 5 6 7 7 8 8 9 8 8 7 9 9
36 36 36 34 33 31 29 25 22 20 19 14 13 10 10 8 6 4 3 3 2 2 3 4 4 4 4 5 4 4 4 5 6 7 8 9 10 9 9 9 8 7 7
39 37 38 36 34 33 30 27 23 21 19 17 15 13 11 10 7 5 4 3 4 3 3 5 5 5 5 6 7 8 9 9 9 9 10 9 10 10 10 9 9 8 7
43 39 39 37 36 34 32 29 25 22 22 18 15 12 10 9 8 7 6 5 5 5 5 5 7 7 6 7 8 10 10 11 11 11 12 12 10 11 11 12 12 11 10
44 43 40 39 38 35 33 29 25 22 21 19 16 13 10 9 9 9 9 8 9 8 7 7 8 9 9 9 8 9 10 10 11 13 13 15 14 11 10 12 12 12 12
46 45 41 41 41 39 36 31 28 25 24 20 18 15 12 11 10 9 10 8 9 8 8 11 10 10 10 11 10 11 12 13 13 11 13 13 7 8 9 11 10 11 15
47 47 42 43 43 38 36 32 31 29 25 23 21 16 11 12 13 10 9 8 9 9 10 12 12 11 10 12 13 14 12 13 12 12 10 9 8 8 11 11 11 12 12
47 47 44 42 44 40 38 35 32 31 30 26 21 14 9 8 15 13 11 9 9 9 8 9 12 12 11 11 12 10 11 11 8 6 5 6 9 11 11 11 10 11 11
48 45 44 41 48 43 40 35 33 32 29 28 26 24 12 10 11 10 14 12 10 9 9 7 7 7 7 7 7 8 9 8 8 8 8 10 11 11 11 12 11 11 10
50 48 46 45 47 44 40 35 36 33 31 29 29 27 19 15 14 9 8 13 12 8 7 7 8 7 7 7 7 8 9 11 12 13 15 15 14 14 13 14 15 13 11
51 47 43 43 44 44 40 37 36 33 31 29 26 22 22 21 17 12 13 12 10 7 5 6 6 7 7 8 10 11 12 14 16 18 18 17 16 16 15 16 14 11 12
53 49 46 45 44 40 39 38 36 33 30 29 25 21 19 18 16 13 12 11 9 9 7 8 8 9 7 7 8 8 9 11 13 15 17 16 16 15 16 15 17 12 16
53 50 46 46 44 41 39 38 35 33 30 28 25 23 20 18 14 13 13 14 12 10 9 11 10 9 9 8 9 12 13 15 15 15 16 13 11 12 12 12 12 17 20
52 50 47 44 43 42 40 38 34 33 31 29 28 23 19 15 13 8 15 15 11 9 12 11 11 10 10 11 14 15 15 15 13 15 15 9 9 13 15 16 14 19 21
51 47 45 44 43 42 39 37 36 34 32 32 27 22 18 17 11 9 17 15 11 13 12 13 12 13 13 16 17 15 16 15 15 14 13 11 12 12 15 17 18 20 22
50 48 47 45 44 41 39 39 37 35 35 29 25 20 17 19 9 11 13 13 12 14 14 16 16 16 16 16 16 17 17 17 16 15 14 13 14 16 18 18 19 20 19
47 47 47 48 43 43 41 40 39 37 35 30 27 20 19 15 8 13 13 16 15 15 16 14 14 15 15 16 17 17 17 17 17 15 15 16 16 17 17 18 17 15 15
42 44 44 44 43 39 38 39 39 39 33 29 23 21 22 20 18 19 19 18 17 16 15 13 14 15 16 17 17 16 16 16 17 17 16 16 16 16 16 16 15 15 13
36 35 35 38 39 41 44 44 42 36 32 29 27 25 26 24 26 25 21 20 19 16 15 15 16 17 18 17 18 17 16 16 15 15 13 13 15 16 17 15 14 12 14
25 29 32 38 43 44 46 43 41 37 35 31 27 26 27 30 32 25 26 23 21 17 16 17 19 19 19 18 17 18 18 16 13 12 12 13 16 16 15 16 17 17 14
17 22 21 27 43 37 40 40 40 40 41 37 35 28 30 27 26 25 26 23 19 17 17 19 19 20 18 18 18 16 15 15 11 10 10 12 13 15 17 18 15 14 13
7 10 17 12 16 16 20 24 29 41 43 43 42 33 23 25 23 24 23 21 19 19 19 20 21 19 18 16 16 14 14 13 11 10 13 13 14 15 14 16 16 14 14
6 7 9 11 11 16 24 27 28 30 37 33 28 23 20 23 26 23 20 19 19 19 20 20 19 17 16 16 14 13 14 13 12 11 12 16 14 14 15 15 15 16 16
4 4 6 8 10 10 12 16 16 17 14 15 16 19 22 22 21 19 18 19 19 18 18 17 17 16 15 15 14 14 13 13 12 11 11 13 13 15 16 15 15 16 17
2 2 5 6 9 9 11 13 12 14 16 17 19 19 18 19 19 20 19 18 16 14 13 13 14 15 15 14 13 14 14 13 12 11 10 11 14 12 10 15 15 17 17

GFSMA_850_spd_129.txt.gz
Wind_Speed
31 31 29 27 26 26 25 24 23 22 18 15 13 10 7 6 5 3 2 1 1 1 1 2 2 3 4 5 5 6 6 7 8 9 10 11 11 11 11 11 11 12 13
33 33 33 30 29 28 27 25 24 23 20 16 13 11 8 5 4 2 2 1 1 1 1 2 3 4 4 5 5 6 6 6 8 9 10 11 12 12 11 10 10 10 11
36 35 34 33 32 31 29 27 26 24 21 18 14 11 9 6 5 4 3 3 2 2 2 3 4 5 5 5 6 6 6 7 9 9 10 11 12 12 11 11 11 11 10
39 36 34 35 34 33 32 30 28 26 22 18 16 12 9 9 8 6 5 4 3 3 2 4 4 5 7 8 9 10 10 10 10 10 11 10 11 12 12 10 10 11 11
40 37 36 36 37 37 36 33 30 27 24 20 16 13 11 10 9 8 7 6 5 5 5 5 5 6 7 8 9 10 9 10 10 9 12 13 14 13 11 11 10 11 10
42 39 38 38 39 39 38 35 31 28 24 19 18 16 13 12 12 10 10 9 8 8 8 7 6 7 9 9 10 10 10 9 11 12 12 12 11 9 8 9 10 11 11
45 43 41 40 41 43 41 37 33 29 26 23 20 17 16 15 14 13 11 11 10 9 9 9 9 8 9 11 12 11 11 12 13 10 12 9 9 8 9 11 10 10 10
47 48 45 43 44 44 43 40 36 33 27 27 25 20 13 17 17 15 14 12 11 10 9 11 11 10 9 11 13 13 13 11 11 12 7 6 6 8 11 12 11 10 10
47 49 48 45 43 45 45 43 39 35 33 30 27 18 9 11 18 18 16 14 12 11 9 11 12 11 11 11 11 9 10 10 9 7 4 5 7 10 10 11 12 11 10
41 55 51 48 46 49 46 43 40 36 33 33 31 29 16 9 12 12 19 17 14 12 11 12 11 9 8 8 8 8 8 7 7 8 9 10 10 10 11 12 13 12 12
48 51 46 46 43 46 48 45 43 37 35 34 34 32 28 17 14 9 12 18 17 14 13 13 12 10 10 9 9 10 9 9 10 12 14 15 14 12 12 15 14 12 11
49 50 50 47 42 46 50 46 42 38 36 35 34 33 32 26 21 18 14 14 15 15 14 12 11 11 11 11 12 11 12 13 13 13 14 14 14 12 12 14 13 13 12
52 53 57 51 50 54 49 47 42 38 36 36 34 33 30 28 23 20 18 14 14 16 16 13 13 13 11 12 11 11 10 11 13 15 16 16 15 12 13 15 13 13 12
54 57 57 54 49 53 46 48 42 38 36 36 34 33 30 28 26 23 20 19 15 16 17 15 13 13 14 13 13 12 14 14 16 16 15 16 16 13 11 12 13 12 12
62 55 51 49 51 48 47 45 43 39 37 36 35 32 31 32 25 24 20 21 20 17 15 16 16 15 16 16 15 15 15 16 16 16 16 17 14 14 13 16 16 16 16
50 58 53 56 54 46 42 42 40 38 37 36 34 34 35 29 26 24 20 22 21 20 9 15 18 16 17 18 17 16 16 16 16 16 17 16 16 14 14 13 15 17 17
48 45 52 48 47 43 42 42 40 37 38 36 35 36 36 30 29 25 21 24 24 19 12 18 21 19 20 20 19 17 17 17 17 17 16 17 17 17 16 16 17 17 16
32 33 38 43 43 42 41 41 39 39 39 38 38 38 33 32 30 28 23 19 21 19 15 20 22 21 20 20 19 18 17 17 16 17 18 17 18 17 16 16 16 14 14
31 37 40 44 43 42 39 40 39 40 40 39 40 40 34 34 33 30 27 22 22 21 15 24 24 22 21 21 20 18 17 16 15 16 17 16 15 16 17 15 13 13 14
29 31 33 36 39 38 38 39 39 39 39 39 36 39 37 36 33 31 29 26 25 26 25 25 27 24 21 20 20 19 17 16 15 15 16 15 13 11 12 14 16 14 13
26 28 32 33 32 35 36 36 38 38 37 38 40 44 40 41 36 32 32 28 30 26 23 23 27 26 21 21 21 19 18 16 15 15 14 14 13 13 14 15 15 15 16
8 34 21 25 27 26 28 32 36 39 40 44 48 50 47 41 38 37 36 35 27 25 25 28 28 26 20 21 20 20 19 17 15 14 12 11 12 12 14 15 16 15 16
10 12 14 31 32 33 35 34 38 44 48 50 51 49 47 47 46 40 41 33 28 27 29 27 26 22 22 21 22 21 20 18 16 14 13 10 11 12 13 13 14 15 15
6 7 7 10 10 12 10 14 22 23 24 31 38 47 47 44 45 43 35 25 27 28 28 28 24 23 23 22 21 19 19 18 17 15 14 12 9 11 12 13 14 15 15
4 4 6 6 7 10 7 7 9 13 12 15 18 23 26 26 24 20 18 21 26 25 27 25 22 21 21 21 21 20 20 18 17 16 14 12 10 9 10 12 15 15 16
7 5 3 2 1 1 5 9 10 7 10 11 12 12 15 17 16 16 17 20 23 23 25 23 21 19 18 17 17 17 18 18 17 16 13 12 9 6 5 9 12 14 15

GFSMA_850_spd_132.txt.gz
Wind_Speed
29 28 27 26 26 26 25 24 22 19 17 15 14 11 9 8 7 5 4 3 2 1 1 2 3 4 5 5 5 7 7 8 8 10 11 12 13 13 12 12 10 11 13
31 29 29 28 27 27 27 26 24 21 18 16 15 12 10 8 6 4 3 2 2 1 1 1 2 3 3 4 5 5 5 6 8 9 10 11 12 13 12 10 10 9 11
34 32 30 31 29 28 28 28 26 24 21 18 15 14 12 9 6 4 4 3 3 2 2 2 2 3 4 5 7 6 6 8 8 8 9 10 11 12 11 10 9 9 9
36 35 33 33 30 30 30 30 29 28 24 20 17 15 13 10 8 7 6 5 4 4 3 3 4 4 5 6 7 7 8 7 7 8 8 10 9 10 9 8 9 9 8
38 38 35 32 32 33 33 32 31 29 26 23 19 16 13 10 9 9 7 7 6 6 6 6 5 6 7 7 7 8 7 7 6 8 8 9 11 12 9 8 8 9 8
41 41 36 33 34 35 36 36 34 32 27 23 19 17 14 12 12 12 11 10 10 9 8 8 7 8 8 9 8 9 8 6 7 10 9 12 9 9 6 8 8 7 9
43 43 39 36 36 39 39 38 36 34 29 25 22 18 16 15 15 15 14 12 12 11 10 9 10 9 10 10 9 10 10 8 9 10 9 9 6 6 7 9 9 9 8
41 41 41 41 40 41 42 43 41 37 31 29 26 22 15 18 20 18 16 14 14 12 11 11 11 10 10 10 11 12 12 9 10 9 6 4 3 6 9 9 8 10 8
39 40 41 46 43 42 44 45 43 39 36 33 30 20 10 12 19 21 20 18 16 14 13 13 12 11 12 11 11 11 9 9 9 7 5 5 5 7 9 10 10 10 9
36 39 41 45 47 46 45 46 45 42 37 36 35 33 22 9 12 11 22 21 19 17 15 14 14 13 11 10 10 10 9 8 8 8 9 10 11 10 12 11 13 14 12
38 38 40 46 49 48 45 43 45 45 41 40 39 36 35 22 14 12 12 22 21 19 18 17 16 14 12 11 11 11 10 11 11 11 13 14 14 14 12 12 12 12 12
42 45 46 49 50 46 46 43 44 46 45 42 39 39 36 34 26 18 16 15 21 21 21 19 18 15 13 12 13 13 13 12 13 13 13 14 14 14 10 13 15 14 13
43 43 46 49 48 48 46 43 43 48 47 45 42 40 38 35 32 23 21 17 18 21 22 21 20 16 14 15 14 14 13 11 12 14 16 17 14 11 10 16 16 16 15
38 43 46 52 46 46 44 46 47 48 50 47 44 41 39 36 33 30 25 24 21 20 22 22 21 19 17 16 16 15 14 14 15 17 16 16 16 16 14 16 16 17 16
37 42 47 50 52 52 48 52 49 43 51 48 45 40 39 36 35 32 32 29 25 22 26 25 24 19 18 19 17 16 16 17 17 17 17 17 19 19 17 17 16 18 18
40 41 48 51 52 52 49 48 50 51 50 50 45 42 38 38 36 34 34 28 27 25 24 23 20 18 18 18 19 17 18 19 18 18 18 19 20 20 19 18 15 15 16
40 44 46 49 51 58 58 51 49 53 49 49 46 40 39 39 38 36 35 29 31 27 28 23 18 19 21 20 21 20 21 21 20 20 20 20 20 21 22 21 19 20 19
44 49 46 51 53 49 40 42 51 51 48 48 45 39 41 39 39 36 33 33 35 32 30 28 23 23 25 23 22 23 23 22 21 21 20 20 20 21 23 22 19 18 18
44 39 51 51 52 52 45 50 49 44 44 43 39 40 42 40 40 38 37 39 38 31 29 32 29 26 27 25 25 26 25 24 22 21 20 20 21 21 20 22 19 17 14
41 36 25 21 24 34 28 29 35 38 34 34 36 38 41 41 40 34 40 43 36 36 34 34 34 30 29 26 26 26 24 24 22 22 21 20 21 19 19 16 13 13 14
16 17 18 18 19 22 25 28 29 28 28 36 38 38 42 42 41 39 43 45 41 43 40 37 37 32 31 27 25 26 24 24 24 22 22 20 19 17 16 16 15 15 15
17 15 17 20 20 21 22 22 27 31 36 37 38 39 41 40 40 38 41 45 45 47 44 42 41 34 29 28 29 27 26 25 25 24 22 20 16 14 16 17 16 16 15
13 8 16 20 20 22 23 23 23 24 26 30 31 34 37 40 43 44 45 48 50 48 48 43 39 30 30 29 25 28 27 26 25 22 18 17 17 15 16 16 18 17 17
10 6 4 8 10 12 14 14 17 21 28 36 35 36 41 46 52 51 50 54 57 50 36 31 29 28 24 25 26 26 25 25 25 24 21 20 16 15 16 17 17 18 16
18 15 12 9 7 6 8 6 6 9 13 15 18 24 28 28 28 32 32 35 30 26 25 23 22 22 25 25 26 27 27 26 25 25 22 19 17 15 15 16 17 17 17
15 12 10 9 6 3 2 4 7 9 8 7 10 13 17 16 6 6 8 12 12 14 15 19 22 23 23 24 24 27 26 27 25 24 22 20 18 15 12 16 17 17 18

GFSMA_850_spd_135.txt.gz
Wind_Speed
27 25 24 25 24 22 22 21 20 19 17 16 15 13 11 11 10 8 7 6 4 3 3 3 2 2 2 3 3 4 5 6 5 6 8 9 10 11 11 10 9 10 9
29 28 26 26 25 25 23 22 22 20 18 17 15 14 12 11 10 9 7 6 5 4 3 3 2 1 0 1 1 2 3 3 4 5 6 7 9 11 11 9 8 8 8
32 31 29 29 28 27 26 25 24 23 20 19 16 15 14 12 10 9 8 7 6 5 5 5 4 3 3 4 5 6 6 7 6 5 6 7 8 10 9 8 8 8 8
36 33 31 31 30 28 28 28 27 27 24 21 19 17 15 13 12 10 8 8 8 7 7 6 5 6 7 7 5 5 4 4 4 3 5 7 7 8 8 7 8 8 8
40 38 33 33 32 32 30 30 31 29 27 24 21 17 16 15 14 13 11 10 10 9 8 8 7 7 8 8 8 7 4 4 3 5 6 6 8 6 6 5 7 8 9
39 39 37 35 34 35 34 33 33 32 30 25 22 19 18 17 17 15 14 13 13 12 11 10 10 9 9 9 9 9 7 6 6 7 8 9 7 5 4 5 7 7 7
41 41 41 37 36 35 36 34 34 34 33 28 23 21 21 20 19 18 17 16 15 15 15 13 12 11 11 11 11 10 9 8 9 8 8 8 4 3 5 6 7 7 8
41 44 43 39 37 37 37 36 38 38 36 32 28 24 17 22 23 22 21 19 17 17 17 15 14 13 12 12 12 11 11 11 9 9 8 6 4 5 7 7 8 9 9
42 42 45 41 40 41 39 38 41 42 40 37 33 20 11 12 18 26 25 22 20 19 18 16 17 16 14 13 13 12 11 10 9 10 9 9 7 7 8 10 11 10 11
36 37 38 41 42 41 42 40 41 43 43 41 37 35 25 13 12 11 26 27 24 22 21 19 18 18 15 14 12 12 11 10 10 10 10 11 11 10 10 12 12 14 15
38 39 40 43 41 41 43 41 42 45 47 45 43 40 38 31 19 17 12 21 28 26 24 22 20 19 17 15 14 14 12 12 12 12 13 14 14 14 12 11 14 15 17
37 40 42 42 41 41 39 43 41 44 46 47 44 43 42 39 34 26 21 16 20 26 27 25 23 21 19 18 17 16 15 14 13 13 13 15 15 15 14 11 17 19 19
38 39 41 41 42 43 39 46 45 46 48 48 49 47 43 43 38 31 29 23 19 23 26 26 26 24 22 20 19 17 15 15 15 14 16 17 17 17 15 15 20 20 19
40 38 41 42 42 42 42 43 41 46 50 53 51 48 46 44 40 40 34 30 24 24 25 28 25 27 24 22 20 19 18 17 16 17 18 20 19 18 17 17 20 21 20
38 36 36 38 42 43 43 42 41 46 52 53 53 54 52 45 44 41 40 37 33 26 32 30 29 27 26 25 24 22 21 20 19 19 20 21 20 20 20 21 20 19 19
38 38 36 35 36 43 45 48 41 46 49 54 53 51 49 47 46 43 42 40 40 39 35 32 28 29 26 28 26 24 24 22 22 22 21 22 21 21 22 22 21 20 21
36 37 38 36 37 42 45 49 43 49 49 51 52 48 50 49 49 48 40 42 42 43 41 35 31 26 30 29 25 29 27 25 23 24 23 22 22 21 21 22 22 23 19
39 40 42 41 40 43 45 46 51 51 53 56 54 49 48 48 46 45 44 43 44 44 37 38 37 30 31 34 30 30 29 27 27 25 24 24 23 22 22 22 24 24 21
38 36 40 41 41 43 45 49 50 49 54 49 52 50 51 47 46 47 46 46 45 44 40 43 39 34 36 37 33 35 33 31 29 25 27 25 24 23 23 23 23 21 20
32 33 38 42 38 42 45 43 49 50 51 43 39 46 45 50 48 45 47 44 42 44 43 41 38 40 40 39 35 38 36 33 27 26 26 25 25 24 24 24 23 19 18
32 34 35 35 37 31 32 46 50 43 40 42 47 40 33 34 34 37 41 44 41 39 43 47 45 44 48 44 41 41 35 32 28 29 28 27 25 24 23 22 21 19 17
28 30 35 14 10 9 9 5 9 12 18 13 19 19 25 27 30 34 40 43 43 42 47 49 57 54 52 53 46 40 32 32 33 30 26 26 25 24 23 23 22 21 21
16 12 7 7 8 8 6 7 10 11 14 16 23 27 32 35 37 34 32 34 38 42 44 44 50 52 56 54 49 37 32 28 28 24 22 22 23 22 21 21 22 22 23
19 14 12 19 14 9 8 9 12 15 16 19 22 24 25 28 33 35 37 40 38 42 48 49 54 57 58 48 33 30 25 21 21 22 23 24 24 23 22 22 22 21 24
22 20 17 15 13 15 15 13 10 11 10 9 11 12 13 19 19 19 17 21 19 25 30 25 21 19 18 19 23 21 21 19 19 23 24 25 25 22 23 23 22 22 23
20 17 15 14 11 9 5 1 4 7 6 7 8 9 9 11 10 9 14 14 11 12 11 9 10 11 13 14 15 14 14 19 23 22 26 24 24 21 18 22 22 22 23